Time,TemperatureF,DewpointF,PressureIn,WindDirection,WindDirectionDegrees,WindSpeedMPH,WindSpeedGustMPH,Humidity,HourlyPrecipIn,Conditions,Clouds,dailyrainin,SoftwareType,DateUTC
2013-06-18 00:00:00,66.1,56.8,28.85,West,270,0.0,2.0,72,0.00,,,0.00,WeatherDisplay:10.37,2013-06-18 05:00:00,
2013-06-18 00:05:00,66.0,56.7,28.85,NW,315,1.2,0.0,72,0.00,,,0.00,WeatherDisplay:10.37,2013-06-18 05:05:00,
2013-06-18 00:10:00,65.7,56.8,28.85,SE,135,2.3,2.3,73,0.00,,,0.00,WeatherDisplay:10.37,2013-06-18 05:10:00,
2013-06-18 00:15:00,64.8,56.3,28.85,East,90,1.2,0.0,74,0.00,,,0.00,WeatherDisplay:10.37,2013-06-18 05:15:00,
2013-06-18 00:20:00,64.0,57.4,28.86,South,180,3.5,3.5,79,0.00,,,0.00,WeatherDisplay:10.37,2013-06-18 05:20:00,
2013-06-18 00:25:00,63.7,57.7,28.85,SW,225,3.5,3.5,81,0.00,,,0.00,WeatherDisplay:10.37,2013-06-18 05:25:00,
2013-06-18 00:31:00,63.5,57.2,28.85,NW,315,2.3,0.0,80,0.00,,,0.00,WeatherDisplay:10.37,2013-06-18 05:31:00,
2013-06-18 00:36:00,63.5,57.6,28.85,SE,135,1.2,0.0,81,0.00,,,0.00,WeatherDisplay:10.37,2013-06-18 05:36:00,
2013-06-18 00:41:00,63.1,57.6,28.85,SE,135,1.2,0.0,82,0.00,,,0.00,WeatherDisplay:10.37,2013-06-18 05:41:00,
2013-06-18 00:46:00,62.8,57.2,28.85,SE,135,1.2,0.0,82,0.00,,,0.00,WeatherDisplay:10.37,2013-06-18 05:46:00,
2013-06-18 00:51:00,62.6,57.0,28.85,SE,135,1.2,0.0,82,0.00,,,0.00,WeatherDisplay:10.37,2013-06-18 05:51:00,
2013-06-18 00:56:00,62.8,57.9,28.85,North,0,1.2,1.2,84,0.00,,,0.00,WeatherDisplay:10.37,2013-06-18 05:56:00,
2013-06-18 01:01:00,63.1,57.9,28.84,North,0,1.2,0.0,83,0.00,,,0.00,WeatherDisplay:10.37,2013-06-18 06:01:00,
2013-06-18 01:07:00,63.1,57.9,28.84,North,0,0.0,0.0,83,0.00,,,0.00,WeatherDisplay:10.37,2013-06-18 06:07:00,
2013-06-18 01:12:00,63.3,57.7,28.84,NE,45,1.2,1.2,82,0.00,,,0.00,WeatherDisplay:10.37,2013-06-18 06:12:00,
2013-06-18 01:17:00,63.1,57.9,28.84,NE,45,1.2,0.0,83,0.00,,,0.00,WeatherDisplay:10.37,2013-06-18 06:17:00,
2013-06-18 01:22:00,63.0,58.0,28.84,NE,45,1.2,0.0,84,0.00,,,0.00,WeatherDisplay:10.37,2013-06-18 06:22:00,
2013-06-18 01:28:00,62.8,57.9,28.84,NE,45,1.2,0.0,84,0.00,,,0.00,WeatherDisplay:10.37,2013-06-18 06:28:00,
2013-06-18 01:33:00,63.0,58.4,28.84,NW,315,1.2,1.2,85,0.00,,,0.00,WeatherDisplay:10.37,2013-06-18 06:33:00,
2013-06-18 01:38:00,63.3,58.1,28.84,North,0,1.2,0.0,83,0.00,,,0.00,WeatherDisplay:10.37,2013-06-18 06:38:00,
2013-06-18 01:43:00,63.5,58.2,28.84,West,270,2.3,0.0,83,0.00,,,0.00,WeatherDisplay:10.37,2013-06-18 06:43:00,
2013-06-18 01:48:00,63.9,58.3,28.84,West,270,2.3,2.3,82,0.00,,,0.00,WeatherDisplay:10.37,2013-06-18 06:48:00,
2013-06-18 01:53:00,64.8,58.1,28.84,NW,315,3.5,3.5,79,0.00,,,0.00,WeatherDisplay:10.37,2013-06-18 06:53:00,
2013-06-18 01:59:00,65.3,57.9,28.84,West,270,3.5,3.5,77,0.00,,,0.00,WeatherDisplay:10.37,2013-06-18 06:59:00,
2013-06-18 02:04:00,65.3,57.9,28.84,WSW,248,2.3,2.3,77,0.00,,,0.00,WeatherDisplay:10.37,2013-06-18 07:04:00,
2013-06-18 02:09:00,64.6,57.6,28.84,SW,225,1.2,1.2,78,0.00,,,0.00,WeatherDisplay:10.37,2013-06-18 07:09:00,
2013-06-18 02:15:00,64.0,57.4,28.84,SW,225,1.2,0.0,79,0.00,,,0.00,WeatherDisplay:10.37,2013-06-18 07:15:00,
2013-06-18 02:20:00,63.9,57.6,28.84,NW,315,1.2,0.0,80,0.00,,,0.00,WeatherDisplay:10.37,2013-06-18 07:20:00,
2013-06-18 02:25:00,64.0,57.7,28.84,NW,315,1.2,1.2,80,0.00,,,0.00,WeatherDisplay:10.37,2013-06-18 07:25:00,
2013-06-18 02:30:00,63.9,57.6,28.84,NW,315,1.2,0.0,80,0.00,,,0.00,WeatherDisplay:10.37,2013-06-18 07:30:00,
2013-06-18 02:36:00,63.9,57.2,28.84,NW,315,1.2,0.0,79,0.00,,,0.00,WeatherDisplay:10.37,2013-06-18 07:36:00,
2013-06-18 02:41:00,63.9,57.6,28.83,NW,315,0.0,0.0,80,0.00,,,0.00,WeatherDisplay:10.37,2013-06-18 07:41:00,
2013-06-18 02:46:00,63.5,57.2,28.83,NE,45,2.3,2.3,80,0.00,,,0.00,WeatherDisplay:10.37,2013-06-18 07:46:00,
2013-06-18 02:51:00,62.4,56.9,28.84,NE,45,3.5,3.5,82,0.00,,,0.00,WeatherDisplay:10.37,2013-06-18 07:51:00,
2013-06-18 02:56:00,61.7,57.1,28.84,NE,45,3.5,3.5,85,0.00,,,0.00,WeatherDisplay:10.37,2013-06-18 07:56:00,
2013-06-18 03:02:00,61.7,57.1,28.84,NE,45,1.2,0.0,85,0.00,,,0.00,WeatherDisplay:10.37,2013-06-18 08:02:00,
2013-06-18 03:07:00,61.7,57.1,28.84,NE,45,1.2,0.0,85,0.00,,,0.00,WeatherDisplay:10.37,2013-06-18 08:07:00,
2013-06-18 03:12:00,61.7,57.5,28.84,NE,45,0.0,0.0,86,0.00,,,0.00,WeatherDisplay:10.37,2013-06-18 08:12:00,
2013-06-18 03:17:00,61.9,57.6,28.84,NE,45,1.2,0.0,86,0.00,,,0.00,WeatherDisplay:10.37,2013-06-18 08:17:00,
2013-06-18 03:22:00,61.7,57.1,28.84,NE,45,0.0,0.0,85,0.00,,,0.00,WeatherDisplay:10.37,2013-06-18 08:22:00,
2013-06-18 03:28:00,61.5,57.0,28.84,North,0,1.2,0.0,85,0.00,,,0.00,WeatherDisplay:10.37,2013-06-18 08:28:00,
2013-06-18 03:33:00,61.7,57.5,28.84,North,0,1.2,0.0,86,0.00,,,0.00,WeatherDisplay:10.37,2013-06-18 08:33:00,
2013-06-18 03:38:00,61.5,57.3,28.84,North,0,1.2,1.2,86,0.00,,,0.00,WeatherDisplay:10.37,2013-06-18 08:38:00,
2013-06-18 03:43:00,61.3,57.1,28.84,North,0,1.2,0.0,86,0.00,,,0.00,WeatherDisplay:10.37,2013-06-18 08:43:00,
2013-06-18 03:48:00,61.0,57.4,28.84,NE,45,3.5,3.5,88,0.00,,,0.00,WeatherDisplay:10.37,2013-06-18 08:48:00,
2013-06-18 03:54:00,60.6,57.4,28.84,NE,45,2.3,2.3,89,0.00,,,0.00,WeatherDisplay:10.37,2013-06-18 08:54:00,
2013-06-18 03:59:00,60.4,57.5,28.85,NE,45,1.2,1.2,90,0.00,,,0.00,WeatherDisplay:10.37,2013-06-18 08:59:00,
2013-06-18 04:04:00,60.3,57.3,28.85,NE,45,1.2,1.2,90,0.00,,,0.00,WeatherDisplay:10.37,2013-06-18 09:04:00,
2013-06-18 04:09:00,60.3,57.6,28.85,NE,45,1.2,0.0,91,0.00,,,0.00,WeatherDisplay:10.37,2013-06-18 09:09:00,
2013-06-18 04:14:00,60.1,57.1,28.84,NE,45,0.0,0.0,90,0.00,,,0.00,WeatherDisplay:10.37,2013-06-18 09:14:00,
2013-06-18 04:19:00,60.1,57.1,28.84,NE,45,0.0,0.0,90,0.00,,,0.00,WeatherDisplay:10.37,2013-06-18 09:19:00,
2013-06-18 04:25:00,59.9,57.0,28.84,NE,45,0.0,0.0,90,0.00,,,0.00,WeatherDisplay:10.37,2013-06-18 09:25:00,
2013-06-18 04:30:00,59.9,57.0,28.84,NE,45,0.0,0.0,90,0.00,,,0.00,WeatherDisplay:10.37,2013-06-18 09:30:00,
2013-06-18 04:35:00,59.9,57.0,28.85,NE,45,0.0,0.0,90,0.00,,,0.00,WeatherDisplay:10.37,2013-06-18 09:35:00,
2013-06-18 04:40:00,60.3,57.9,28.85,NE,45,3.5,3.5,92,0.00,,,0.00,WeatherDisplay:10.37,2013-06-18 09:40:00,
2013-06-18 04:46:00,60.3,57.6,28.85,NE,45,1.2,0.0,91,0.00,,,0.00,WeatherDisplay:10.37,2013-06-18 09:46:00,
2013-06-18 04:51:00,60.3,57.6,28.85,NE,45,0.0,0.0,91,0.00,,,0.00,WeatherDisplay:10.37,2013-06-18 09:51:00,
2013-06-18 04:56:00,60.3,57.6,28.85,NE,45,1.2,0.0,91,0.00,,,0.00,WeatherDisplay:10.37,2013-06-18 09:56:00,
2013-06-18 05:01:00,60.1,57.4,28.85,East,90,2.3,2.3,91,0.00,,,0.00,WeatherDisplay:10.37,2013-06-18 10:01:00,
2013-06-18 05:06:00,60.1,57.4,28.85,East,90,2.3,2.3,91,0.00,,,0.00,WeatherDisplay:10.37,2013-06-18 10:06:00,
2013-06-18 05:11:00,59.5,56.9,28.85,East,90,0.0,0.0,91,0.00,,,0.00,WeatherDisplay:10.37,2013-06-18 10:11:00,
2013-06-18 05:17:00,59.4,56.7,28.85,NW,315,1.2,0.0,91,0.00,,,0.00,WeatherDisplay:10.37,2013-06-18 10:17:00,
2013-06-18 05:22:00,59.5,57.2,28.85,NW,315,0.0,0.0,92,0.00,,,0.00,WeatherDisplay:10.37,2013-06-18 10:22:00,
2013-06-18 05:27:00,59.5,57.5,28.85,NW,315,1.2,0.0,93,0.00,,,0.00,WeatherDisplay:10.37,2013-06-18 10:27:00,
2013-06-18 05:33:00,59.4,57.0,28.85,NW,315,0.0,0.0,92,0.00,,,0.00,WeatherDisplay:10.37,2013-06-18 10:33:00,
2013-06-18 05:38:00,59.2,56.9,28.85,NW,315,0.0,0.0,92,0.00,,,0.00,WeatherDisplay:10.37,2013-06-18 10:38:00,
2013-06-18 05:43:00,59.0,56.7,28.85,NW,315,0.0,0.0,92,0.00,,,0.00,WeatherDisplay:10.37,2013-06-18 10:43:00,
2013-06-18 05:49:00,58.8,56.5,28.85,NW,315,0.0,0.0,92,0.00,,,0.00,WeatherDisplay:10.37,2013-06-18 10:49:00,
2013-06-18 05:54:00,58.8,56.8,28.85,NW,315,0.0,0.0,93,0.00,,,0.00,WeatherDisplay:10.37,2013-06-18 10:54:00,
2013-06-18 05:59:00,59.0,57.3,28.85,NW,315,1.2,1.2,94,0.00,,,0.00,WeatherDisplay:10.37,2013-06-18 10:59:00,
2013-06-18 06:04:00,59.7,58.6,28.86,NW,315,2.3,2.3,96,0.00,,,0.00,WeatherDisplay:10.37,2013-06-18 11:04:00,
2013-06-18 06:09:00,60.6,58.9,28.85,NW,315,2.3,2.3,94,0.00,,,0.00,WeatherDisplay:10.37,2013-06-18 11:09:00,
2013-06-18 06:14:00,61.3,59.3,28.86,North,0,2.3,2.3,93,0.00,,,0.00,WeatherDisplay:10.37,2013-06-18 11:14:00,
2013-06-18 06:19:00,62.1,59.4,28.86,North,0,5.8,5.8,91,0.00,,,0.00,WeatherDisplay:10.37,2013-06-18 11:19:00,
2013-06-18 06:24:00,62.8,59.8,28.86,NE,45,4.6,4.6,90,0.00,,,0.00,WeatherDisplay:10.37,2013-06-18 11:24:00,
2013-06-18 06:30:00,63.1,59.5,28.87,NNE,27,2.0,6.0,88,0.00,,,0.00,WeatherDisplay:10.37,2013-06-18 11:30:00,
2013-06-18 06:35:00,63.1,59.5,28.86,NE,45,3.5,3.5,88,0.00,,,0.00,WeatherDisplay:10.37,2013-06-18 11:35:00,
2013-06-18 06:40:00,63.5,59.9,28.86,NW,315,3.5,3.5,88,0.00,,,0.00,WeatherDisplay:10.37,2013-06-18 11:40:00,
2013-06-18 06:45:00,64.0,60.1,28.86,West,270,2.3,2.3,87,0.00,,,0.00,WeatherDisplay:10.37,2013-06-18 11:45:00,
2013-06-18 06:50:00,64.8,60.5,28.86,NW,315,3.5,3.5,86,0.00,,,0.00,WeatherDisplay:10.37,2013-06-18 11:50:00,
2013-06-18 06:55:00,65.7,61.0,28.86,ESE,112,2.3,2.3,85,0.00,,,0.00,WeatherDisplay:10.37,2013-06-18 11:55:00,
2013-06-18 07:00:00,66.7,61.4,28.86,NE,45,5.8,5.8,83,0.00,,,0.00,WeatherDisplay:10.37,2013-06-18 12:00:00,
2013-06-18 07:05:00,66.7,61.4,28.87,NE,45,3.5,3.5,83,0.00,,,0.00,WeatherDisplay:10.37,2013-06-18 12:05:00,
2013-06-18 07:10:00,68.0,61.2,28.87,NE,45,2.3,2.3,79,0.00,,,0.00,WeatherDisplay:10.37,2013-06-18 12:10:00,
2013-06-18 07:15:00,68.4,60.1,28.87,North,0,3.5,3.5,75,0.00,,,0.00,WeatherDisplay:10.37,2013-06-18 12:15:00,
2013-06-18 07:21:00,69.1,60.4,28.87,NE,45,3.5,3.5,74,0.00,,,0.00,WeatherDisplay:10.37,2013-06-18 12:21:00,
2013-06-18 07:26:00,70.0,60.5,28.86,NE,45,3.5,3.5,72,0.00,,,0.00,WeatherDisplay:10.37,2013-06-18 12:26:00,
2013-06-18 07:31:00,71.1,61.2,28.87,North,0,3.5,3.5,71,0.00,,,0.00,WeatherDisplay:10.37,2013-06-18 12:31:00,
2013-06-18 07:36:00,71.6,60.9,28.87,NNW,338,1.2,1.2,69,0.00,,,0.00,WeatherDisplay:10.37,2013-06-18 12:36:00,
2013-06-18 07:41:00,71.1,59.5,28.88,NW,315,3.5,3.5,67,0.00,,,0.00,WeatherDisplay:10.37,2013-06-18 12:41:00,
2013-06-18 07:47:00,72.1,61.4,28.87,SE,135,2.3,2.3,69,0.00,,,0.00,WeatherDisplay:10.37,2013-06-18 12:47:00,
2013-06-18 07:52:00,72.9,60.0,28.88,NE,45,4.6,4.6,64,0.00,,,0.00,WeatherDisplay:10.37,2013-06-18 12:52:00,
2013-06-18 07:57:00,73.0,60.6,28.87,North,0,3.5,3.5,65,0.00,,,0.00,WeatherDisplay:10.37,2013-06-18 12:57:00,
2013-06-18 08:02:00,73.2,59.9,28.88,NE,45,4.6,4.6,63,0.00,,,0.00,WeatherDisplay:10.37,2013-06-18 13:02:00,
2013-06-18 08:07:00,73.6,59.8,28.88,NW,315,4.6,4.6,62,0.00,,,0.00,WeatherDisplay:10.37,2013-06-18 13:07:00,
2013-06-18 08:12:00,73.8,59.9,28.88,North,0,5.8,5.8,62,0.00,,,0.00,WeatherDisplay:10.37,2013-06-18 13:12:00,
2013-06-18 08:18:00,73.8,59.5,28.88,NE,45,6.9,6.9,61,0.00,,,0.00,WeatherDisplay:10.37,2013-06-18 13:18:00,
2013-06-18 08:23:00,73.2,59.4,28.88,NE,45,5.8,5.8,62,0.00,,,0.00,WeatherDisplay:10.37,2013-06-18 13:23:00,
2013-06-18 08:28:00,73.6,60.2,28.88,NE,45,6.9,6.9,63,0.00,,,0.00,WeatherDisplay:10.37,2013-06-18 13:28:00,
2013-06-18 08:33:00,74.1,60.3,28.87,NE,45,5.8,5.8,62,0.00,,,0.00,WeatherDisplay:10.37,2013-06-18 13:33:00,
2013-06-18 08:38:00,73.6,59.8,28.88,NE,45,5.8,5.8,62,0.00,,,0.00,WeatherDisplay:10.37,2013-06-18 13:38:00,
2013-06-18 08:43:00,73.8,59.9,28.88,NE,45,5.8,5.8,62,0.00,,,0.00,WeatherDisplay:10.37,2013-06-18 13:43:00,
2013-06-18 08:49:00,74.7,60.3,28.88,NE,45,5.8,5.8,61,0.00,,,0.00,WeatherDisplay:10.37,2013-06-18 13:49:00,
2013-06-18 08:54:00,75.0,60.2,28.88,NE,45,4.6,4.6,60,0.00,,,0.00,WeatherDisplay:10.37,2013-06-18 13:54:00,
2013-06-18 08:59:00,75.7,60.4,28.88,NE,45,6.9,6.9,59,0.00,,,0.00,WeatherDisplay:10.37,2013-06-18 13:59:00,
2013-06-18 09:04:00,75.9,60.6,28.88,NE,45,4.6,4.6,59,0.00,,,0.00,WeatherDisplay:10.37,2013-06-18 14:04:00,
2013-06-18 09:09:00,76.5,60.6,28.88,North,0,3.5,3.5,58,0.00,,,0.00,WeatherDisplay:10.37,2013-06-18 14:09:00,
2013-06-18 09:14:00,76.8,60.9,28.88,NE,45,5.8,5.8,58,0.00,,,0.00,WeatherDisplay:10.37,2013-06-18 14:14:00,
2013-06-18 09:20:00,76.8,60.4,28.88,NE,45,5.8,5.8,57,0.00,,,0.00,WeatherDisplay:10.37,2013-06-18 14:20:00,
2013-06-18 09:25:00,77.5,62.1,28.88,NE,45,3.5,3.5,59,0.00,,,0.00,WeatherDisplay:10.37,2013-06-18 14:25:00,
2013-06-18 09:30:00,79.0,61.9,28.89,East,90,3.5,3.5,56,0.00,,,0.00,WeatherDisplay:10.37,2013-06-18 14:30:00,
2013-06-18 09:35:00,79.7,61.6,28.89,SE,135,2.3,2.3,54,0.00,,,0.00,WeatherDisplay:10.37,2013-06-18 14:35:00,
2013-06-18 09:41:00,80.8,61.5,28.89,South,180,3.5,3.5,52,0.00,,,0.00,WeatherDisplay:10.37,2013-06-18 14:41:00,
2013-06-18 09:46:00,80.6,61.3,28.89,South,180,3.5,3.5,52,0.00,,,0.00,WeatherDisplay:10.37,2013-06-18 14:46:00,
2013-06-18 09:51:00,80.8,61.0,28.89,North,0,4.6,4.6,51,0.00,,,0.00,WeatherDisplay:10.37,2013-06-18 14:51:00,
2013-06-18 09:57:00,81.3,60.9,28.88,East,90,3.5,3.5,50,0.00,,,0.00,WeatherDisplay:10.37,2013-06-18 14:57:00,
2013-06-18 10:02:00,81.0,60.6,28.88,NW,315,2.3,2.3,50,0.00,,,0.00,WeatherDisplay:10.37,2013-06-18 15:02:00,
2013-06-18 10:07:00,81.1,60.7,28.88,NE,45,4.6,4.6,50,0.00,,,0.00,WeatherDisplay:10.37,2013-06-18 15:07:00,
2013-06-18 10:12:00,81.0,60.6,28.88,East,90,2.3,2.3,50,0.00,,,0.00,WeatherDisplay:10.37,2013-06-18 15:12:00,
2013-06-18 10:17:00,81.5,61.6,28.88,South,180,1.2,1.6,51,0.00,,,0.00,WeatherDisplay:10.37,2013-06-18 15:17:00,
2013-06-18 10:23:00,81.5,60.5,28.88,East,90,3.5,3.5,49,0.00,,,0.00,WeatherDisplay:10.37,2013-06-18 15:23:00,
2013-06-18 10:28:00,81.7,60.7,28.88,North,0,3.5,3.5,49,0.00,,,0.00,WeatherDisplay:10.37,2013-06-18 15:28:00,
2013-06-18 10:33:00,81.9,59.1,28.87,West,270,5.8,5.8,46,0.00,,,0.00,WeatherDisplay:10.37,2013-06-18 15:33:00,
2013-06-18 10:38:00,82.0,59.2,28.87,NE,45,3.5,3.8,46,0.00,,,0.00,WeatherDisplay:10.37,2013-06-18 15:38:00,
2013-06-18 10:43:00,82.6,59.1,28.87,East,90,3.5,3.5,45,0.00,,,0.00,WeatherDisplay:10.37,2013-06-18 15:43:00,
2013-06-18 10:49:00,82.9,58.1,28.87,East,90,3.5,3.5,43,0.00,,,0.00,WeatherDisplay:10.37,2013-06-18 15:49:00,
2013-06-18 10:54:00,81.9,55.9,28.87,NE,45,8.1,8.1,41,0.00,,,0.00,WeatherDisplay:10.37,2013-06-18 15:54:00,
2013-06-18 10:59:00,82.2,58.8,28.88,NW,315,3.5,3.5,45,0.00,,,0.00,WeatherDisplay:10.37,2013-06-18 15:59:00,
2013-06-18 11:04:00,82.8,58.6,28.88,SE,135,4.6,4.6,44,0.00,,,0.00,WeatherDisplay:10.37,2013-06-18 16:04:00,
2013-06-18 11:09:00,83.1,57.0,28.87,NE,45,5.8,5.8,41,0.00,,,0.00,WeatherDisplay:10.37,2013-06-18 16:09:00,
2013-06-18 11:14:00,82.2,56.2,28.88,NW,315,5.8,5.8,41,0.00,,,0.00,WeatherDisplay:10.37,2013-06-18 16:14:00,
2013-06-18 11:19:00,82.0,57.3,28.87,South,180,3.5,0.0,43,0.00,,,0.00,WeatherDisplay:10.37,2013-06-18 16:19:00,
2013-06-18 11:24:00,83.1,58.3,28.88,SW,225,5.8,5.8,43,0.00,,,0.00,WeatherDisplay:10.37,2013-06-18 16:24:00,
2013-06-18 11:30:00,82.9,58.8,28.88,East,90,4.6,4.6,44,0.00,,,0.00,WeatherDisplay:10.37,2013-06-18 16:30:00,
2013-06-18 11:35:00,83.1,56.3,28.87,NE,45,3.5,3.5,40,0.00,,,0.00,WeatherDisplay:10.37,2013-06-18 16:35:00,
2013-06-18 11:40:00,83.3,57.8,28.87,SW,225,4.6,4.6,42,0.00,,,0.00,WeatherDisplay:10.37,2013-06-18 16:40:00,
2013-06-18 11:45:00,83.0,58.2,28.87,South,183,2.0,6.0,43,0.00,,,0.00,WeatherDisplay:10.37,2013-06-18 16:45:00,
2013-06-18 11:50:00,82.4,59.5,28.87,South,180,3.5,3.5,46,0.00,,,0.00,WeatherDisplay:10.37,2013-06-18 16:50:00,
2013-06-18 11:55:00,82.6,59.1,28.87,South,180,4.6,4.6,45,0.00,,,0.00,WeatherDisplay:10.37,2013-06-18 16:55:00,
2013-06-18 12:00:00,83.5,58.0,28.87,South,180,5.8,5.8,42,0.00,,,0.00,WeatherDisplay:10.37,2013-06-18 17:00:00,
2013-06-18 12:05:00,83.5,58.6,28.87,North,0,2.3,0.0,43,0.00,,,0.00,WeatherDisplay:10.37,2013-06-18 17:05:00,
2013-06-18 12:10:00,83.1,55.6,28.87,East,90,4.6,4.6,39,0.00,,,0.00,WeatherDisplay:10.37,2013-06-18 17:10:00,
2013-06-18 12:15:00,83.7,56.8,28.87,SW,225,3.5,3.5,40,0.00,,,0.00,WeatherDisplay:10.37,2013-06-18 17:15:00,
2013-06-18 12:20:00,83.1,57.0,28.87,SW,225,3.5,3.5,41,0.00,,,0.00,WeatherDisplay:10.37,2013-06-18 17:20:00,
2013-06-18 12:25:00,83.1,58.9,28.87,West,270,3.5,3.5,44,0.00,,,0.00,WeatherDisplay:10.37,2013-06-18 17:25:00,
2013-06-18 12:30:00,81.7,55.7,28.87,SW,225,3.5,3.5,41,0.00,,,0.00,WeatherDisplay:10.37,2013-06-18 17:30:00,
2013-06-18 12:35:00,82.4,55.7,28.86,NW,315,5.8,5.8,40,0.00,,,0.00,WeatherDisplay:10.37,2013-06-18 17:35:00,
2013-06-18 12:41:00,83.5,57.3,28.86,NW,315,3.5,3.5,41,0.00,,,0.00,WeatherDisplay:10.37,2013-06-18 17:41:00,
2013-06-18 12:46:00,84.0,56.4,28.86,SW,225,5.8,5.8,39,0.00,,,0.00,WeatherDisplay:10.37,2013-06-18 17:46:00,
2013-06-18 12:51:00,83.3,55.0,28.86,NE,45,8.1,8.1,38,0.00,,,0.00,WeatherDisplay:10.37,2013-06-18 17:51:00,
2013-06-18 12:56:00,81.9,54.5,28.86,NE,45,10.4,10.4,39,0.00,,,0.00,WeatherDisplay:10.37,2013-06-18 17:56:00,
2013-06-18 13:02:00,82.6,54.4,28.86,North,0,12.7,12.7,38,0.00,,,0.00,WeatherDisplay:10.37,2013-06-18 18:02:00,
2013-06-18 13:07:00,82.8,55.3,28.86,SW,225,2.3,2.3,39,0.00,,,0.00,WeatherDisplay:10.37,2013-06-18 18:07:00,
2013-06-18 13:12:00,82.9,56.1,28.85,West,270,2.3,2.3,40,0.00,,,0.00,WeatherDisplay:10.37,2013-06-18 18:12:00,
2013-06-18 13:17:00,83.3,57.8,28.85,West,270,2.3,2.3,42,0.00,,,0.00,WeatherDisplay:10.37,2013-06-18 18:17:00,
2013-06-18 13:22:00,84.9,56.5,28.85,South,180,2.3,3.1,38,0.00,,,0.00,WeatherDisplay:10.37,2013-06-18 18:22:00,
2013-06-18 13:27:00,84.4,55.3,28.85,NE,45,10.4,10.4,37,0.00,,,0.00,WeatherDisplay:10.37,2013-06-18 18:27:00,
2013-06-18 13:32:00,83.1,55.6,28.85,SW,225,5.8,0.0,39,0.00,,,0.00,WeatherDisplay:10.37,2013-06-18 18:32:00,
2013-06-18 13:38:00,84.2,57.3,28.85,NW,315,4.6,4.6,40,0.00,,,0.00,WeatherDisplay:10.37,2013-06-18 18:38:00,
2013-06-18 13:43:00,84.2,55.8,28.84,NW,315,8.1,8.1,38,0.00,,,0.00,WeatherDisplay:10.37,2013-06-18 18:43:00,
2013-06-18 13:48:00,84.9,56.5,28.84,NE,45,3.5,3.5,38,0.00,,,0.00,WeatherDisplay:10.37,2013-06-18 18:48:00,
2013-06-18 13:53:00,85.5,54.7,28.85,East,90,9.2,9.2,35,0.00,,,0.00,WeatherDisplay:10.37,2013-06-18 18:53:00,
2013-06-18 13:58:00,85.6,54.8,28.84,NE,45,8.1,8.3,35,0.00,,,0.00,WeatherDisplay:10.37,2013-06-18 18:58:00,
2013-06-18 14:03:00,85.5,54.7,28.84,ENE,68,9.2,9.2,35,0.00,,,0.00,WeatherDisplay:10.37,2013-06-18 19:03:00,
2013-06-18 14:08:00,84.9,54.2,28.84,NE,45,10.4,10.4,35,0.00,,,0.00,WeatherDisplay:10.37,2013-06-18 19:08:00,
2013-06-18 14:14:00,85.5,54.7,28.84,SW,225,4.6,4.6,35,0.00,,,0.00,WeatherDisplay:10.37,2013-06-18 19:14:00,
2013-06-18 14:19:00,84.9,53.4,28.84,South,180,4.6,4.6,34,0.00,,,0.00,WeatherDisplay:10.37,2013-06-18 19:19:00,
2013-06-18 14:24:00,82.2,54.8,28.84,South,180,4.6,4.6,39,0.00,,,0.00,WeatherDisplay:10.37,2013-06-18 19:24:00,
2013-06-18 14:29:00,82.8,56.7,28.84,NW,315,6.9,6.9,41,0.00,,,0.00,WeatherDisplay:10.37,2013-06-18 19:29:00,
2013-06-18 14:34:00,85.1,55.1,28.83,East,90,5.8,5.8,36,0.00,,,0.00,WeatherDisplay:10.37,2013-06-18 19:34:00,
2013-06-18 14:39:00,86.2,53.7,28.83,East,90,5.8,5.8,33,0.00,,,0.00,WeatherDisplay:10.37,2013-06-18 19:39:00,
2013-06-18 14:44:00,86.5,54.0,28.83,North,0,5.8,5.8,33,0.00,,,0.00,WeatherDisplay:10.37,2013-06-18 19:44:00,
2013-06-18 14:49:00,87.1,54.5,28.83,NE,45,10.4,10.4,33,0.00,,,0.00,WeatherDisplay:10.37,2013-06-18 19:49:00,
2013-06-18 14:54:00,86.0,55.2,28.83,NE,45,11.5,11.5,35,0.00,,,0.00,WeatherDisplay:10.37,2013-06-18 19:54:00,
2013-06-18 15:00:00,85.6,54.8,28.83,East,90,11.5,11.5,35,0.00,,,0.00,WeatherDisplay:10.37,2013-06-18 20:00:00,
2013-06-18 15:05:00,85.8,55.8,28.83,East,90,4.6,4.6,36,0.00,,,0.00,WeatherDisplay:10.37,2013-06-18 20:05:00,
2013-06-18 15:10:00,84.7,54.1,28.83,East,90,10.4,10.4,35,0.00,,,0.00,WeatherDisplay:10.37,2013-06-18 20:10:00,
2013-06-18 15:15:00,85.1,54.4,28.83,North,0,5.8,5.8,35,0.00,,,0.00,WeatherDisplay:10.37,2013-06-18 20:15:00,
2013-06-18 15:21:00,84.6,56.2,28.83,NW,315,8.1,8.1,38,0.00,,,0.00,WeatherDisplay:10.37,2013-06-18 20:21:00,
2013-06-18 15:26:00,86.0,55.9,28.82,NNW,338,3.5,3.5,36,0.00,,,0.00,WeatherDisplay:10.37,2013-06-18 20:26:00,
2013-06-18 15:31:00,87.1,54.5,28.82,NE,45,3.5,3.5,33,0.00,,,0.00,WeatherDisplay:10.37,2013-06-18 20:31:00,
2013-06-18 15:36:00,88.0,55.3,28.82,NE,45,3.5,3.5,33,0.00,,,0.00,WeatherDisplay:10.37,2013-06-18 20:36:00,
2013-06-18 15:41:00,86.2,52.9,28.82,North,0,10.4,10.4,32,0.00,,,0.00,WeatherDisplay:10.37,2013-06-18 20:41:00,
2013-06-18 15:46:00,83.8,52.5,28.82,NE,45,9.2,9.2,34,0.00,,,0.00,WeatherDisplay:10.37,2013-06-18 20:46:00,
2013-06-18 15:52:00,83.5,53.7,28.82,South,180,4.6,4.6,36,0.00,,,0.00,WeatherDisplay:10.37,2013-06-18 20:52:00,
2013-06-18 15:57:00,86.5,56.4,28.82,SE,135,4.6,4.6,36,0.00,,,0.00,WeatherDisplay:10.37,2013-06-18 20:57:00,
2013-06-18 16:02:00,88.7,55.1,28.82,South,180,3.5,3.5,32,0.00,,,0.00,WeatherDisplay:10.37,2013-06-18 21:02:00,
2013-06-18 16:07:00,89.6,52.2,28.82,East,90,8.1,8.1,28,0.00,,,0.00,WeatherDisplay:10.37,2013-06-18 21:07:00,
2013-06-18 16:13:00,88.5,54.0,28.81,NE,45,9.2,9.2,31,0.00,,,0.00,WeatherDisplay:10.37,2013-06-18 21:13:00,
2013-06-18 16:18:00,88.3,53.9,28.81,NE,45,8.1,8.1,31,0.00,,,0.00,WeatherDisplay:10.37,2013-06-18 21:18:00,
2013-06-18 16:23:00,88.3,53.9,28.81,NE,45,8.1,8.1,31,0.00,,,0.00,WeatherDisplay:10.37,2013-06-18 21:23:00,
2013-06-18 16:28:00,88.3,53.0,28.81,East,90,11.5,11.5,30,0.00,,,0.00,WeatherDisplay:10.37,2013-06-18 21:28:00,
2013-06-18 16:34:00,87.6,53.2,28.81,East,90,6.9,6.9,31,0.00,,,0.00,WeatherDisplay:10.37,2013-06-18 21:34:00,
2013-06-18 16:39:00,85.1,51.9,28.81,NE,45,9.2,9.2,32,0.00,,,0.00,WeatherDisplay:10.37,2013-06-18 21:39:00,
2013-06-18 16:44:00,86.0,54.4,28.81,NE,45,5.8,0.0,34,0.00,,,0.00,WeatherDisplay:10.37,2013-06-18 21:44:00,
2013-06-18 16:50:00,87.1,51.9,28.81,NE,45,8.1,8.1,30,0.00,,,0.00,WeatherDisplay:10.37,2013-06-18 21:50:00,
2013-06-18 16:55:00,88.0,53.6,28.81,North,0,10.4,10.4,31,0.00,,,0.00,WeatherDisplay:10.37,2013-06-18 21:55:00,
2013-06-18 17:00:00,89.6,54.1,28.81,NE,45,4.6,4.6,30,0.00,,,0.00,WeatherDisplay:10.37,2013-06-18 22:00:00,
2013-06-18 17:05:00,89.1,52.7,28.81,NE,45,6.9,6.9,29,0.00,,,0.00,WeatherDisplay:10.37,2013-06-18 22:05:00,
2013-06-18 17:11:00,88.9,52.5,28.81,NE,45,8.1,8.1,29,0.00,,,0.00,WeatherDisplay:10.37,2013-06-18 22:11:00,
2013-06-18 17:16:00,88.0,52.7,28.80,NE,45,8.1,8.1,30,0.00,,,0.00,WeatherDisplay:10.37,2013-06-18 22:16:00,
2013-06-18 17:21:00,87.8,53.4,28.80,SE,135,5.8,5.8,31,0.00,,,0.00,WeatherDisplay:10.37,2013-06-18 22:21:00,
2013-06-18 17:26:00,88.0,52.7,28.80,NE,45,5.8,5.8,30,0.00,,,0.00,WeatherDisplay:10.37,2013-06-18 22:26:00,
2013-06-18 17:32:00,88.7,54.2,28.80,East,90,5.8,5.8,31,0.00,,,0.00,WeatherDisplay:10.37,2013-06-18 22:32:00,
2013-06-18 17:37:00,89.1,53.6,28.80,East,90,10.4,10.4,30,0.00,,,0.00,WeatherDisplay:10.37,2013-06-18 22:37:00,
2013-06-18 17:42:00,88.9,54.3,28.80,East,90,5.8,5.8,31,0.00,,,0.00,WeatherDisplay:10.37,2013-06-18 22:42:00,
2013-06-18 17:47:00,89.1,52.7,28.80,NE,45,9.2,9.2,29,0.00,,,0.00,WeatherDisplay:10.37,2013-06-18 22:47:00,
2013-06-18 17:52:00,88.9,53.4,28.80,NE,45,8.1,8.1,30,0.00,,,0.00,WeatherDisplay:10.37,2013-06-18 22:52:00,
2013-06-18 17:57:00,89.2,52.8,28.79,NE,45,5.8,5.8,29,0.00,,,0.00,WeatherDisplay:10.37,2013-06-18 22:57:00,
2013-06-18 18:02:00,89.2,53.7,28.79,NE,45,8.1,8.1,30,0.00,,,0.00,WeatherDisplay:10.37,2013-06-18 23:02:00,
2013-06-18 18:07:00,89.2,51.9,28.79,NE,45,6.9,6.9,28,0.00,,,0.00,WeatherDisplay:10.37,2013-06-18 23:07:00,
2013-06-18 18:13:00,89.6,53.1,28.79,East,90,5.8,5.8,29,0.00,,,0.00,WeatherDisplay:10.37,2013-06-18 23:13:00,
2013-06-18 18:18:00,89.4,52.0,28.79,East,90,5.8,5.8,28,0.00,,,0.00,WeatherDisplay:10.37,2013-06-18 23:18:00,
2013-06-18 18:23:00,88.9,52.5,28.79,NE,45,10.4,10.4,29,0.00,,,0.00,WeatherDisplay:10.37,2013-06-18 23:23:00,
2013-06-18 18:28:00,88.5,53.1,28.78,North,0,8.1,8.1,30,0.00,,,0.00,WeatherDisplay:10.37,2013-06-18 23:28:00,
2013-06-18 18:33:00,88.0,53.6,28.78,NE,45,10.4,10.4,31,0.00,,,0.00,WeatherDisplay:10.37,2013-06-18 23:33:00,
2013-06-18 18:39:00,88.0,53.6,28.78,NE,45,10.4,10.4,31,0.00,,,0.00,WeatherDisplay:10.37,2013-06-18 23:39:00,
2013-06-18 18:44:00,86.9,53.5,28.79,NE,45,9.2,9.2,32,0.00,,,0.00,WeatherDisplay:10.37,2013-06-18 23:44:00,
2013-06-18 18:49:00,86.4,53.0,28.79,NE,45,8.1,8.1,32,0.00,,,0.00,WeatherDisplay:10.37,2013-06-18 23:49:00,
2013-06-18 18:54:00,84.9,53.4,28.79,NE,45,5.8,5.8,34,0.00,,,0.00,WeatherDisplay:10.37,2013-06-18 23:54:00,
2013-06-18 18:59:00,86.5,53.2,28.78,NE,45,5.8,5.8,32,0.00,,,0.00,WeatherDisplay:10.37,2013-06-18 23:59:00,
2013-06-18 19:05:00,86.7,53.3,28.79,NE,45,3.5,3.5,32,0.00,,,0.00,WeatherDisplay:10.37,2013-06-19 00:05:00,
2013-06-18 19:10:00,87.3,53.8,28.79,NE,45,6.9,6.9,32,0.00,,,0.00,WeatherDisplay:10.37,2013-06-19 00:10:00,
2013-06-18 19:15:00,87.3,52.9,28.78,NE,45,8.1,8.1,31,0.00,,,0.00,WeatherDisplay:10.37,2013-06-19 00:15:00,
2013-06-18 19:20:00,87.6,53.2,28.79,East,90,3.5,3.5,31,0.00,,,0.00,WeatherDisplay:10.37,2013-06-19 00:20:00,
2013-06-18 19:25:00,87.8,52.5,28.79,NE,45,5.8,5.8,30,0.00,,,0.00,WeatherDisplay:10.37,2013-06-19 00:25:00,
2013-06-18 19:31:00,88.0,52.7,28.78,NE,45,3.5,3.5,30,0.00,,,0.00,WeatherDisplay:10.37,2013-06-19 00:31:00,
2013-06-18 19:36:00,87.8,53.4,28.78,NE,45,5.8,5.8,31,0.00,,,0.00,WeatherDisplay:10.37,2013-06-19 00:36:00,
2013-06-18 19:41:00,87.4,53.1,28.78,NE,45,5.8,5.8,31,0.00,,,0.00,WeatherDisplay:10.37,2013-06-19 00:41:00,
2013-06-18 19:46:00,87.1,54.5,28.78,NE,45,4.6,4.6,33,0.00,,,0.00,WeatherDisplay:10.37,2013-06-19 00:46:00,
2013-06-18 19:52:00,87.1,54.5,28.78,East,90,3.5,3.5,33,0.00,,,0.00,WeatherDisplay:10.37,2013-06-19 00:52:00,
2013-06-18 19:57:00,87.3,54.6,28.78,East,90,2.3,2.3,33,0.00,,,0.00,WeatherDisplay:10.37,2013-06-19 00:57:00,
2013-06-18 20:02:00,87.3,54.6,28.78,East,90,3.5,3.5,33,0.00,,,0.00,WeatherDisplay:10.37,2013-06-19 01:02:00,
2013-06-18 20:07:00,86.7,55.8,28.78,East,90,3.5,3.5,35,0.00,,,0.00,WeatherDisplay:10.37,2013-06-19 01:07:00,
2013-06-18 20:13:00,86.7,56.6,28.78,SE,135,1.2,1.2,36,0.00,,,0.00,WeatherDisplay:10.37,2013-06-19 01:13:00,
2013-06-18 20:18:00,85.5,56.2,28.78,SE,135,1.2,1.2,37,0.00,,,0.00,WeatherDisplay:10.37,2013-06-19 01:18:00,
2013-06-18 20:23:00,82.9,56.1,28.78,SE,135,1.2,1.2,40,0.00,,,0.00,WeatherDisplay:10.37,2013-06-19 01:23:00,
2013-06-18 20:28:00,81.5,56.2,28.78,East,90,1.2,0.0,42,0.00,,,0.00,WeatherDisplay:10.37,2013-06-19 01:28:00,
2013-06-18 20:33:00,80.4,56.5,28.78,East,90,1.2,1.2,44,0.00,,,0.00,WeatherDisplay:10.37,2013-06-19 01:33:00,
2013-06-18 20:39:00,79.9,59.6,28.78,East,90,2.3,2.3,50,0.00,,,0.00,WeatherDisplay:10.37,2013-06-19 01:39:00,
2013-06-18 20:44:00,78.6,61.6,28.78,NE,45,3.5,3.5,56,0.00,,,0.00,WeatherDisplay:10.37,2013-06-19 01:44:00,
2013-06-18 20:49:00,77.4,61.9,28.78,NE,45,2.3,2.3,59,0.00,,,0.00,WeatherDisplay:10.37,2013-06-19 01:49:00,
2013-06-18 20:54:00,76.6,61.2,28.78,NE,45,1.2,0.0,59,0.00,,,0.00,WeatherDisplay:10.37,2013-06-19 01:54:00,
2013-06-18 20:59:00,75.6,60.7,28.78,NE,45,1.2,1.2,60,0.00,,,0.00,WeatherDisplay:10.37,2013-06-19 01:59:00,
2013-06-18 21:05:00,75.4,60.5,28.78,NE,45,2.3,2.3,60,0.00,,,0.00,WeatherDisplay:10.37,2013-06-19 02:05:00,
2013-06-18 21:10:00,73.9,60.5,28.78,South,180,2.3,2.3,63,0.00,,,0.00,WeatherDisplay:10.37,2013-06-19 02:10:00,
2013-06-18 21:15:00,73.2,59.4,28.78,East,90,1.2,1.2,62,0.00,,,0.00,WeatherDisplay:10.37,2013-06-19 02:15:00,
2013-06-18 21:20:00,72.9,59.1,28.78,East,90,2.3,2.3,62,0.00,,,0.00,WeatherDisplay:10.37,2013-06-19 02:20:00,
2013-06-18 21:25:00,72.9,59.1,28.79,East,90,1.2,0.0,62,0.00,,,0.00,WeatherDisplay:10.37,2013-06-19 02:25:00,
2013-06-18 21:30:00,72.5,58.7,28.78,East,90,0.0,0.0,62,0.00,,,0.00,WeatherDisplay:10.37,2013-06-19 02:30:00,
2013-06-18 21:35:00,71.8,58.5,28.79,East,90,0.0,0.0,63,0.00,,,0.00,WeatherDisplay:10.37,2013-06-19 02:35:00,
2013-06-18 21:41:00,71.2,58.4,28.79,East,90,0.0,0.0,64,0.00,,,0.00,WeatherDisplay:10.37,2013-06-19 02:41:00,
2013-06-18 21:46:00,70.9,58.1,28.79,East,90,0.0,0.0,64,0.00,,,0.00,WeatherDisplay:10.37,2013-06-19 02:46:00,
2013-06-18 21:51:00,70.3,59.3,28.80,SE,135,2.3,0.0,68,0.00,,,0.00,WeatherDisplay:10.37,2013-06-19 02:51:00,
2013-06-18 21:56:00,70.0,58.9,28.79,SW,225,1.2,0.0,68,0.00,,,0.00,WeatherDisplay:10.37,2013-06-19 02:56:00,
2013-06-18 22:01:00,69.8,58.8,28.79,SW,225,0.0,0.0,68,0.00,,,0.00,WeatherDisplay:10.37,2013-06-19 03:01:00,
2013-06-18 22:07:00,69.8,58.8,28.79,SW,225,0.0,0.0,68,0.00,,,0.00,WeatherDisplay:10.37,2013-06-19 03:07:00,
2013-06-18 22:12:00,69.1,60.1,28.79,NE,45,1.2,0.0,73,0.00,,,0.00,WeatherDisplay:10.37,2013-06-19 03:12:00,
2013-06-18 22:17:00,68.7,59.7,28.80,South,180,1.2,0.0,73,0.00,,,0.00,WeatherDisplay:10.37,2013-06-19 03:17:00,
2013-06-18 22:22:00,68.4,60.9,28.80,SW,225,5.8,5.8,77,0.00,,,0.00,WeatherDisplay:10.37,2013-06-19 03:22:00,
2013-06-18 22:27:00,68.4,60.1,28.80,South,180,1.2,0.0,75,0.00,,,0.00,WeatherDisplay:10.37,2013-06-19 03:27:00,
2013-06-18 22:32:00,68.4,60.1,28.80,SE,135,1.2,0.0,75,0.00,,,0.00,WeatherDisplay:10.37,2013-06-19 03:32:00,
2013-06-18 22:38:00,68.4,59.7,28.80,SW,225,1.2,0.0,74,0.00,,,0.00,WeatherDisplay:10.37,2013-06-19 03:38:00,
2013-06-18 22:43:00,68.4,60.5,28.80,NE,45,3.5,3.5,76,0.00,,,0.00,WeatherDisplay:10.37,2013-06-19 03:43:00,
2013-06-18 22:48:00,67.6,60.2,28.81,East,90,3.5,3.5,77,0.00,,,0.00,WeatherDisplay:10.37,2013-06-19 03:48:00,
2013-06-18 22:53:00,67.1,59.6,28.80,NE,45,2.3,2.3,77,0.00,,,0.00,WeatherDisplay:10.37,2013-06-19 03:53:00,
2013-06-18 22:59:00,67.1,59.6,28.81,North,0,1.2,0.0,77,0.00,,,0.00,WeatherDisplay:10.37,2013-06-19 03:59:00,
2013-06-18 23:01:00,67.1,59.6,28.81,North,0,1.2,0.0,77,0.00,,,0.00,WeatherDisplay:10.37,2013-06-19 04:01:00,
2013-06-18 23:02:00,67.1,59.6,28.80,North,0,1.2,0.0,77,0.00,,,0.00,WeatherDisplay:10.37,2013-06-19 04:02:00,
2013-06-18 23:07:00,67.3,59.5,28.80,NE,45,1.6,0.0,76,0.00,,,0.00,WeatherDisplay:10.37,2013-06-19 04:07:00,
2013-06-18 23:12:00,66.7,58.9,28.80,NE,45,1.2,0.0,76,0.00,,,0.00,WeatherDisplay:10.37,2013-06-19 04:12:00,
2013-06-18 23:18:00,66.2,59.8,28.81,East,90,1.2,1.2,80,0.00,,,0.00,WeatherDisplay:10.37,2013-06-19 04:18:00,
2013-06-18 23:23:00,66.2,59.8,28.81,East,90,1.6,1.6,80,0.00,,,0.00,WeatherDisplay:10.37,2013-06-19 04:23:00,
2013-06-18 23:28:00,66.9,60.2,28.81,South,180,3.5,3.5,79,0.00,,,0.00,WeatherDisplay:10.37,2013-06-19 04:28:00,
2013-06-18 23:33:00,67.6,60.2,28.81,South,180,1.2,1.2,77,0.00,,,0.00,WeatherDisplay:10.37,2013-06-19 04:33:00,
2013-06-18 23:38:00,67.8,60.0,28.82,South,180,1.2,0.0,76,0.00,,,0.00,WeatherDisplay:10.37,2013-06-19 04:38:00,
2013-06-18 23:44:00,67.8,60.0,28.82,NE,45,2.3,2.3,76,0.00,,,0.00,WeatherDisplay:10.37,2013-06-19 04:44:00,
2013-06-18 23:49:00,67.8,60.7,28.81,NE,45,3.5,3.5,78,0.00,,,0.00,WeatherDisplay:10.37,2013-06-19 04:49:00,
2013-06-18 23:54:00,67.1,60.4,28.81,NE,45,3.5,3.5,79,0.00,,,0.00,WeatherDisplay:10.37,2013-06-19 04:54:00,
2013-06-18 23:59:00,66.7,60.0,28.81,NE,45,3.5,3.5,79,0.00,,,0.00,WeatherDisplay:10.37,2013-06-19 04:59:00,